| time (UTC) | temp F | wind direction | speed knots | gust knots | rain 1hr in | rain 24hr in | rain mn in | humidity % | barometer mb |
| 20260503200303 | 63 | 314 | 7.0 | 7.8 | 0.00 | 0.00 | 0.00 | 27 | 1003.0 |
| 20260503195801 | 64 | 300 | 2.6 | 2.6 | 0.00 | 0.00 | 0.00 | 27 | 1002.9 |
| 20260503195258 | 62 | 276 | 1.7 | 1.7 | 0.00 | 0.00 | 0.00 | 26 | 1003.2 |
| 20260503194755 | 65 | 4 | 7.0 | 7.8 | 0.00 | 0.00 | 0.00 | 25 | 1003.0 |
| 20260503194250 | 63 | 318 | 0.9 | 0.9 | 0.00 | 0.00 | 0.00 | 29 | 1003.2 |
| 20260503193747 | 63 | 321 | 6.1 | 7.8 | 0.00 | 0.00 | 0.00 | 25 | 1003.0 |
| 20260503193243 | 64 | 306 | 2.6 | 5.2 | 0.00 | 0.00 | 0.00 | 25 | 1003.1 |
| 20260503192738 | 64 | 20 | 1.7 | 1.7 | 0.00 | 0.00 | 0.00 | 29 | 1003.2 |
| 20260503192233 | 63 | 288 | 0.9 | 0.9 | 0.00 | 0.00 | 0.00 | 26 | 1003.2 |
| 20260503191731 | 64 | 276 | 1.7 | 1.7 | 0.00 | 0.00 | 0.00 | 28 | 1003.0 |
| 20260503191228 | 63 | 348 | 3.5 | 5.2 | 0.00 | 0.00 | 0.00 | 28 | 1002.9 |
| 20260503190725 | 62 | 354 | 6.1 | 7.0 | 0.00 | 0.00 | 0.00 | 28 | 1003.3 |
| 20260503190221 | 63 | 352 | 2.6 | 4.3 | 0.00 | 0.00 | 0.00 | 28 | 1003.2 |
| 20260503185719 | 63 | 258 | 0.9 | 1.7 | 0.00 | 0.00 | 0.00 | 28 | 1003.1 |
| 20260503185214 | 63 | 236 | 2.6 | 2.6 | 0.00 | 0.00 | 0.00 | 26 | 1003.2 |
| 20260503184709 | 61 | 242 | 3.5 | 4.3 | 0.00 | 0.00 | 0.00 | 31 | 1003.4 |
| 20260503184205 | 62 | 228 | 3.5 | 4.3 | 0.00 | 0.00 | 0.00 | 33 | 1003.2 |
| 20260503183701 | 62 | 315 | 7.8 | 12.2 | 0.00 | 0.00 | 0.00 | 30 | 1003.5 |
| 20260503183159 | 61 | 166 | 3.5 | 5.2 | 0.00 | 0.00 | 0.00 | 31 | 1003.2 |
| 20260503182657 | 62 | 11 | 3.5 | 5.2 | 0.00 | 0.00 | 0.00 | 30 | 1003.4 |
| 20260503182155 | 62 | 305 | 5.2 | 7.8 | 0.00 | 0.00 | 0.00 | 29 | 1003.5 |
| 20260503181652 | 64 | 332 | 4.3 | 6.1 | 0.00 | 0.00 | 0.00 | 30 | 1003.6 |
| 20260503181149 | 64 | 250 | 0.9 | 1.7 | 0.00 | 0.00 | 0.00 | 35 | 1003.5 |
| 20260503180646 | 63 | 280 | 2.6 | 2.6 | 0.00 | 0.00 | 0.00 | 33 | 1003.5 |
| 20260503180144 | 64 | 290 | 0.9 | 0.9 | 0.00 | 0.00 | 0.00 | 31 | 1003.4 |
| 20260503175640 | 63 | 217 | 2.6 | 4.3 | 0.00 | 0.00 | 0.00 | 29 | 1003.5 |
| 20260503175137 | 63 | 277 | 2.6 | 2.6 | 0.00 | 0.00 | 0.00 | 29 | 1003.5 |
| 20260503174634 | 63 | 303 | 1.7 | 1.7 | 0.00 | 0.00 | 0.00 | 30 | 1003.6 |
| 20260503174131 | 63 | 272 | 3.5 | 4.3 | 0.00 | 0.00 | 0.00 | 27 | 1003.5 |
| 20260503173626 | 62 | 343 | 1.7 | 2.6 | 0.00 | 0.00 | 0.00 | 31 | 1003.6 |
| 20260503173123 | 64 | 315 | 2.6 | 2.6 | 0.00 | 0.00 | 0.00 | 30 | 1003.6 |
| 20260503172620 | 64 | 259 | 2.6 | 2.6 | 0.00 | 0.00 | 0.00 | 32 | 1003.8 |
| 20260503172117 | 62 | 285 | 4.3 | 6.1 | 0.00 | 0.00 | 0.00 | 35 | 1003.7 |
| 20260503171614 | 61 | 341 | 1.7 | 2.6 | 0.00 | 0.00 | 0.00 | 38 | 1003.7 |
| 20260503171111 | 62 | 282 | 4.3 | 6.1 | 0.00 | 0.00 | 0.00 | 39 | 1003.6 |
| 20260503170608 | 60 | 288 | 2.6 | 2.6 | 0.00 | 0.00 | 0.00 | 40 | 1003.6 |
| 20260503170104 | 62 | 293 | 0.9 | 1.7 | 0.00 | 0.00 | 0.00 | 43 | 1003.6 |
| 20260503151000 | 59 | 229 | 1.7 | 1.7 | 0.00 | 0.00 | 0.00 | 52 | 1003.9 |
| 20260503150456 | 59 | 220 | 1.7 | 2.6 | 0.00 | 0.00 | 0.00 | 55 | 1003.9 |
| 20260503131343 | 49 | 328 | 0.9 | 0.9 | 0.00 | 0.00 | 0.00 | 60 | 1004.9 |
| 20260503130841 | 48 | 237 | 0.9 | 0.9 | 0.00 | 0.00 | 0.00 | 63 | 1005.1 |
| 20260503130338 | 47 | 146 | 1.7 | 1.7 | 0.00 | 0.00 | 0.00 | 63 | 1005.1 |
| 20260503110732 | 33 | 322 | 0.9 | 0.9 | 0.00 | 0.00 | 0.00 | 87 | 1005.3 |
| 20260503110229 | 33 | 317 | 0.9 | 0.9 | 0.00 | 0.00 | 0.00 | 86 | 1005.5 |
| 20260503100155 | 34 | 311 | 0.9 | 1.7 | 0.00 | 0.00 | 0.00 | 84 | 1005.9 |
| 20260503090115 | 37 | 290 | 0.0 | 0.0 | 0.00 | 0.00 | 0.00 | 78 | 1006.9 |
| 20260503081545 | 39 | 308 | 0.9 | 0.9 | 0.00 | 0.00 | 0.00 | 78 | 1007.0 |
| 20260503081042 | 39 | 309 | 0.9 | 0.9 | 0.00 | 0.00 | 0.00 | 75 | 1006.8 |
| 20260503080538 | 39 | 319 | 0.9 | 0.9 | 0.00 | 0.00 | 0.00 | 79 | 1007.0 |
| 20260503072506 | 41 | 308 | 0.0 | 0.9 | 0.00 | 0.00 | 0.00 | 70 | 1007.5 |
| 20260503072003 | 41 | 305 | 0.9 | 0.9 | 0.00 | 0.00 | 0.00 | 71 | 1007.6 |
| 20260503071500 | 41 | 313 | 0.9 | 0.9 | 0.00 | 0.00 | 0.00 | 68 | 1007.5 |
| 20260503070955 | 41 | 300 | 0.9 | 0.9 | 0.00 | 0.00 | 0.00 | 73 | 1007.6 |
| 20260503070452 | 42 | 308 | 0.0 | 0.0 | 0.00 | 0.00 | 0.00 | 69 | 1007.7 |
| 20260503054911 | 43 | 311 | 0.9 | 0.9 | 0.00 | 0.00 | 0.00 | 67 | 1008.5 |
| 20260503054408 | 43 | 306 | 0.0 | 0.9 | 0.00 | 0.00 | 0.00 | 66 | 1008.6 |
| 20260503053906 | 42 | 288 | 0.0 | 0.0 | 0.00 | 0.00 | 0.00 | 59 | 1008.7 |
| 20260503053403 | 42 | 300 | 0.0 | 0.0 | 0.00 | 0.00 | 0.00 | 71 | 1008.5 |
| 20260503052859 | 42 | 298 | 0.0 | 0.0 | 0.00 | 0.00 | 0.00 | 67 | 1008.5 |
| 20260503052356 | 42 | 314 | 0.0 | 0.9 | 0.00 | 0.00 | 0.00 | 71 | 1008.5 |
| 20260503051853 | 42 | 320 | 0.9 | 0.9 | 0.00 | 0.00 | 0.00 | 66 | 1008.4 |
| 20260503051349 | 42 | 306 | 0.9 | 0.9 | 0.00 | 0.00 | 0.00 | 70 | 1008.4 |
| 20260503050846 | 42 | 316 | 0.9 | 0.9 | 0.00 | 0.00 | 0.00 | 67 | 1008.6 |
| 20260503050342 | 42 | 299 | 0.9 | 0.9 | 0.00 | 0.00 | 0.00 | 68 | 1008.7 |
| 20260503045840 | 42 | 310 | 0.9 | 0.9 | 0.00 | 0.00 | 0.00 | 72 | 1008.8 |
| 20260503045338 | 42 | 312 | 0.9 | 0.9 | 0.00 | 0.00 | 0.00 | 70 | 1008.6 |
| 20260503044834 | 42 | 306 | 0.9 | 0.9 | 0.00 | 0.00 | 0.00 | 72 | 1008.9 |
| 20260503044331 | 42 | 311 | 0.9 | 0.9 | 0.00 | 0.00 | 0.00 | 71 | 1009.0 |
| 20260503043828 | 42 | 312 | 0.9 | 0.9 | 0.00 | 0.00 | 0.00 | 69 | 1009.5 |
| 20260503043325 | 42 | 329 | 1.7 | 1.7 | 0.00 | 0.00 | 0.00 | 68 | 1009.2 |
| 20260503042821 | 42 | 307 | 0.0 | 0.0 | 0.00 | 0.00 | 0.00 | 66 | 1009.2 |
| 20260503042318 | 43 | 308 | 0.0 | 0.0 | 0.00 | 0.00 | 0.00 | 69 | 1009.5 |
| 20260503041814 | 42 | 307 | 0.0 | 0.0 | 0.00 | 0.00 | 0.00 | 69 | 1009.2 |
| 20260503041311 | 42 | 313 | 0.9 | 0.9 | 0.00 | 0.00 | 0.00 | 65 | 1009.3 |
| 20260503040809 | 42 | 307 | 0.0 | 0.0 | 0.00 | 0.00 | 0.00 | 64 | 1009.3 |
| 20260503040306 | 43 | 306 | 0.9 | 0.9 | 0.00 | 0.00 | 0.00 | 63 | 1009.5 |
| 20260503035803 | 43 | 307 | 0.9 | 0.9 | 0.00 | 0.00 | 0.00 | 65 | 1009.3 |
| 20260503035300 | 43 | 301 | 0.0 | 0.9 | 0.00 | 0.00 | 0.00 | 66 | 1009.5 |
| 20260503034757 | 43 | 321 | 0.9 | 0.9 | 0.00 | 0.00 | 0.00 | 66 | 1009.8 |
| 20260503034254 | 43 | 311 | 0.9 | 0.9 | 0.00 | 0.00 | 0.00 | 60 | 1009.8 |
| 20260503033752 | 43 | 298 | 0.0 | 0.9 | 0.00 | 0.00 | 0.00 | 55 | 1009.9 |
| 20260503033249 | 43 | 292 | 0.0 | 0.0 | 0.00 | 0.00 | 0.00 | 55 | 1009.7 |
| 20260503032747 | 43 | 293 | 0.0 | 0.0 | 0.00 | 0.00 | 0.00 | 60 | 1010.1 |
| 20260503032246 | 43 | 317 | 0.9 | 0.9 | 0.00 | 0.00 | 0.00 | 68 | 1009.6 |
| 20260503031743 | 43 | 290 | 0.0 | 0.0 | 0.00 | 0.00 | 0.00 | 61 | 1009.9 |
| 20260503031241 | 43 | 332 | 0.9 | 1.7 | 0.00 | 0.00 | 0.00 | 64 | 1010.1 |
| 20260503030737 | 43 | 307 | 0.0 | 0.0 | 0.00 | 0.00 | 0.00 | 62 | 1010.1 |
| 20260503030233 | 43 | 299 | 0.0 | 0.9 | 0.00 | 0.00 | 0.00 | 59 | 1010.3 |
| 20260503025730 | 43 | 297 | 0.0 | 0.0 | 0.00 | 0.00 | 0.00 | 53 | 1010.4 |
| 20260503025228 | 43 | 306 | 0.0 | 0.0 | 0.00 | 0.00 | 0.00 | 57 | 1010.3 |
| 20260503024724 | 43 | 305 | 0.0 | 0.0 | 0.00 | 0.00 | 0.00 | 56 | 1010.4 |
| 20260503024222 | 43 | 316 | 0.9 | 1.7 | 0.00 | 0.00 | 0.00 | 55 | 1010.5 |
| 20260503023718 | 43 | 309 | 0.9 | 0.9 | 0.00 | 0.00 | 0.00 | 59 | 1010.3 |
| 20260503023215 | 43 | 308 | 0.9 | 0.9 | 0.00 | 0.00 | 0.00 | 59 | 1010.6 |
| 20260503022711 | 42 | 319 | 0.9 | 0.9 | 0.00 | 0.00 | 0.00 | 63 | 1010.6 |
| 20260503022211 | 42 | 306 | 0.9 | 0.9 | 0.00 | 0.00 | 0.00 | 63 | 1010.7 |
| 20260503021708 | 42 | 305 | 0.0 | 0.9 | 0.00 | 0.00 | 0.00 | 59 | 1010.4 |
| 20260503021204 | 42 | 298 | 0.0 | 0.9 | 0.00 | 0.00 | 0.00 | 60 | 1010.7 |
| 20260503020702 | 42 | 297 | 0.0 | 0.0 | 0.00 | 0.00 | 0.00 | 60 | 1010.4 |
| 20260503020159 | 42 | 298 | 0.0 | 0.0 | 0.00 | 0.00 | 0.00 | 61 | 1010.8 |
| 20260503015656 | 42 | 298 | 0.0 | 0.0 | 0.00 | 0.00 | 0.00 | 59 | 1010.5 |
| 20260503015153 | 42 | 292 | 0.0 | 0.0 | 0.00 | 0.00 | 0.00 | 58 | 1010.6 |
| 20260503014649 | 42 | 299 | 0.0 | 0.0 | 0.00 | 0.00 | 0.00 | 58 | 1010.7 |
| 20260503014147 | 42 | 302 | 0.0 | 0.0 | 0.00 | 0.00 | 0.00 | 59 | 1010.5 |
| 20260503013644 | 42 | 298 | 0.0 | 0.0 | 0.00 | 0.00 | 0.00 | 58 | 1010.6 |
| 20260503013142 | 42 | 292 | 0.0 | 0.0 | 0.00 | 0.00 | 0.00 | 57 | 1010.9 |
| 20260503012638 | 42 | 299 | 0.0 | 0.0 | 0.00 | 0.00 | 0.00 | 56 | 1010.6 |
| 20260503012135 | 43 | 306 | 0.0 | 0.0 | 0.00 | 0.00 | 0.00 | 56 | 1010.8 |
| 20260503011632 | 43 | 306 | 0.0 | 0.0 | 0.00 | 0.00 | 0.00 | 59 | 1010.8 |
| 20260503011129 | 43 | 297 | 0.0 | 0.0 | 0.00 | 0.00 | 0.00 | 57 | 1010.7 |
| 20260503010625 | 44 | 290 | 0.0 | 0.0 | 0.00 | 0.00 | 0.00 | 55 | 1011.0 |
| 20260503010123 | 44 | 289 | 0.0 | 0.0 | 0.00 | 0.00 | 0.00 | 56 | 1010.8 |
| 20260503005619 | 44 | 298 | 0.0 | 0.0 | 0.00 | 0.00 | 0.00 | 55 | 1010.8 |
| 20260503005117 | 44 | 298 | 0.0 | 0.0 | 0.00 | 0.00 | 0.00 | 54 | 1011.2 |
| 20260503004613 | 45 | 290 | 0.0 | 0.0 | 0.00 | 0.00 | 0.00 | 51 | 1011.2 |
| 20260503004112 | 45 | 290 | 0.0 | 0.0 | 0.00 | 0.00 | 0.00 | 50 | 1011.1 |
| 20260503003608 | 45 | 290 | 0.0 | 0.0 | 0.00 | 0.00 | 0.00 | 49 | 1011.1 |
| 20260503003105 | 46 | 290 | 0.0 | 0.0 | 0.00 | 0.00 | 0.00 | 48 | 1011.1 |
| 20260503002602 | 46 | 289 | 0.0 | 0.0 | 0.00 | 0.00 | 0.00 | 48 | 1011.2 |
| 20260503002059 | 46 | 281 | 0.0 | 0.0 | 0.00 | 0.00 | 0.00 | 50 | 1011.5 |
| 20260503001555 | 46 | 295 | 0.0 | 0.0 | 0.00 | 0.00 | 0.00 | 48 | 1011.4 |
| 20260503001052 | 46 | 281 | 0.0 | 0.0 | 0.00 | 0.00 | 0.00 | 47 | 1011.3 |
| 20260503000550 | 47 | 166 | 1.7 | 1.7 | 0.00 | 0.00 | 0.00 | 46 | 1011.3 |
| 20260503000047 | 47 | 274 | 0.0 | 0.0 | 0.00 | 0.00 | 0.00 | 48 | 1011.5 |
| 20260502235543 | 47 | 262 | 0.0 | 0.0 | 0.00 | 0.00 | 0.00 | 46 | 1011.6 |
| 20260502235041 | 47 | 288 | 0.0 | 0.0 | 0.00 | 0.00 | 0.00 | 47 | 1011.7 |
| 20260502234537 | 47 | 295 | 0.0 | 0.0 | 0.00 | 0.00 | 0.00 | 46 | 1011.7 |
| 20260502234035 | 47 | 283 | 0.0 | 0.0 | 0.00 | 0.00 | 0.00 | 48 | 1011.7 |
| 20260502233529 | 47 | 285 | 0.0 | 0.0 | 0.00 | 0.00 | 0.00 | 45 | 1011.9 |
| 20260502233027 | 47 | 234 | 0.9 | 0.9 | 0.00 | 0.00 | 0.00 | 47 | 1011.8 |
| 20260502232523 | 47 | 297 | 0.0 | 0.0 | 0.00 | 0.00 | 0.00 | 47 | 1011.9 |
| 20260502232020 | 48 | 299 | 0.0 | 0.0 | 0.00 | 0.00 | 0.00 | 45 | 1011.9 |
| 20260502231517 | 48 | 279 | 0.0 | 0.0 | 0.00 | 0.00 | 0.00 | 46 | 1011.9 |
| 20260502231015 | 48 | 282 | 1.7 | 1.7 | 0.00 | 0.00 | 0.00 | 44 | 1012.1 |
| 20260502230513 | 48 | 157 | 2.6 | 2.6 | 0.00 | 0.00 | 0.00 | 45 | 1011.8 |
| 20260502230011 | 48 | 283 | 0.0 | 0.9 | 0.00 | 0.00 | 0.00 | 45 | 1011.9 |
| 20260502225511 | 48 | 222 | 0.9 | 1.7 | 0.00 | 0.00 | 0.00 | 45 | 1012.2 |
| 20260502225009 | 49 | 287 | 0.0 | 0.0 | 0.00 | 0.00 | 0.00 | 46 | 1012.3 |
| 20260502224505 | 49 | 262 | 0.0 | 0.9 | 0.00 | 0.00 | 0.00 | 46 | 1012.2 |
| 20260502224002 | 50 | 256 | 0.9 | 0.9 | 0.00 | 0.00 | 0.00 | 44 | 1012.1 |
| 20260502223500 | 50 | 290 | 0.0 | 0.0 | 0.00 | 0.00 | 0.00 | 45 | 1012.5 |
| 20260502222958 | 50 | 269 | 0.0 | 0.9 | 0.00 | 0.00 | 0.00 | 45 | 1012.5 |
| 20260502222455 | 48 | 254 | 0.9 | 0.9 | 0.00 | 0.00 | 0.00 | 47 | 1012.4 |
| 20260502221950 | 49 | 179 | 1.7 | 1.7 | 0.00 | 0.00 | 0.00 | 46 | 1012.6 |
| 20260502221447 | 48 | 148 | 0.9 | 1.7 | 0.00 | 0.00 | 0.00 | 48 | 1012.7 |
| 20260502220944 | 49 | 282 | 0.0 | 0.9 | 0.00 | 0.00 | 0.00 | 47 | 1012.7 |
| 20260502220440 | 48 | 176 | 0.9 | 1.7 | 0.00 | 0.00 | 0.00 | 47 | 1012.8 |
| 20260502215937 | 49 | 173 | 2.6 | 2.6 | 0.00 | 0.00 | 0.00 | 47 | 1012.8 |
| 20260502215434 | 51 | 135 | 3.5 | 4.3 | 0.00 | 0.00 | 0.00 | 46 | 1012.8 |
| 20260502214931 | 50 | 204 | 0.9 | 0.9 | 0.00 | 0.00 | 0.00 | 45 | 1012.9 |
| 20260502214428 | 50 | 240 | 0.9 | 0.9 | 0.00 | 0.00 | 0.00 | 45 | 1012.8 |
| 20260502213925 | 51 | 251 | 0.9 | 0.9 | 0.00 | 0.00 | 0.00 | 47 | 1012.8 |
| 20260502213421 | 49 | 292 | 0.0 | 0.9 | 0.00 | 0.00 | 0.00 | 48 | 1013.3 |
| 20260502212920 | 50 | 293 | 0.9 | 1.7 | 0.00 | 0.00 | 0.00 | 47 | 1013.2 |
| 20260502212419 | 50 | 130 | 0.9 | 1.7 | 0.00 | 0.00 | 0.00 | 48 | 1013.2 |
| 20260502211916 | 50 | 240 | 0.9 | 0.9 | 0.00 | 0.00 | 0.00 | 47 | 1013.1 |
| 20260502211411 | 50 | 167 | 0.9 | 1.7 | 0.00 | 0.00 | 0.00 | 47 | 1013.2 |
| 20260502210909 | 51 | 244 | 0.9 | 1.7 | 0.00 | 0.00 | 0.00 | 48 | 1013.4 |
| 20260502210405 | 49 | 217 | 2.6 | 2.6 | 0.00 | 0.00 | 0.00 | 47 | 1013.3 |
| 20260502205903 | 50 | 286 | 0.9 | 0.9 | 0.00 | 0.00 | 0.00 | 49 | 1013.5 |
| 20260502205358 | 48 | 278 | 0.9 | 0.9 | 0.00 | 0.00 | 0.00 | 53 | 1013.6 |
| 20260502204856 | 49 | 174 | 1.7 | 1.7 | 0.00 | 0.00 | 0.00 | 52 | 1013.5 |
| 20260502204353 | 48 | 291 | 1.7 | 2.6 | 0.00 | 0.00 | 0.00 | 54 | 1013.6 |
| 20260502203850 | 48 | 288 | 1.7 | 2.6 | 0.00 | 0.00 | 0.00 | 57 | 1013.9 |
| 20260502203348 | 49 | 230 | 0.9 | 0.9 | 0.00 | 0.00 | 0.00 | 54 | 1013.6 |
| 20260502202843 | 49 | 260 | 1.7 | 1.7 | 0.00 | 0.00 | 0.00 | 52 | 1014.0 |
| 20260502202341 | 48 | 177 | 3.5 | 4.3 | 0.00 | 0.00 | 0.00 | 55 | 1013.8 |
| 20260502201839 | 48 | 182 | 0.9 | 1.7 | 0.00 | 0.00 | 0.00 | 52 | 1013.7 |
| 20260502201334 | 48 | 278 | 0.9 | 0.9 | 0.00 | 0.00 | 0.00 | 53 | 1013.9 |
| 20260502200831 | 47 | 141 | 3.5 | 4.3 | 0.00 | 0.00 | 0.00 | 55 | 1014.3 |